Vertical_Velocity
9 9 8 5 0 -6 -12 -15 -13 -12 -11 -11 -11 -11 -11 -10 -8 -5 -1 5 7 9 9 10 10 11 12 13 10 4 -1 -4 -4 -3 -2 0 -1 -1 -2 -2 -1 -1 -1 -1 -0 0 2 3 4 3 0 -3 -6 -9 -12 -12 -11 -9 -4 6 18 20 16 11 15 16 14 8 5
10 9 4 -2 -8 -13 -15 -12 -9 -7 -7 -7 -6 -6 -5 -4 -2 -1 1 3 2 1 -0 1 3 6 9 12 10 5 -1 -5 -4 -3 -2 -1 1 0 -1 -0 -0 -1 -1 -1 -1 -0 1 4 4 2 -2 -6 -8 -10 -11 -9 -5 -3 -1 4 12 15 14 11 17 18 16 13 5
7 7 1 -7 -10 -10 -8 -5 -3 -1 -0 -0 -0 -0 0 -0 -1 -1 -2 -4 -7 -11 -13 -13 -10 -4 3 9 9 5 -0 -4 -4 -4 -3 -1 1 1 1 1 1 0 -0 0 -0 -0 1 3 4 2 -2 -9 -13 -14 -12 -8 -1 3 4 3 5 8 11 13 20 20 15 9 -0
-2 1 0 -3 -3 -3 -2 -0 1 2 3 3 3 3 2 1 1 2 2 -1 -7 -9 -9 -7 -7 -6 -3 3 6 4 0 -3 -4 -1 1 3 2 3 4 5 5 3 2 1 0 -0 -1 -1 2 3 0 -8 -16 -18 -14 -7 2 6 6 3 2 3 7 13 21 19 12 1 -6
0 3 3 2 2 2 3 3 2 2 1 2 2 1 0 1 5 8 10 7 1 -0 4 10 8 3 -1 1 3 3 2 1 2 4 5 4 2 4 7 11 12 11 8 6 5 3 1 -0 2 2 -1 -10 -19 -21 -17 -8 3 7 8 6 3 2 3 7 15 16 11 1 -4
9 7 5 3 4 4 3 2 1 0 0 1 2 2 1 1 5 9 11 11 5 3 6 13 16 14 9 6 8 9 10 11 10 7 2 -3 -1 3 8 14 16 16 14 13 9 6 5 7 8 3 -7 -19 -25 -25 -20 -10 0 5 6 4 1 -0 -1 1 9 13 12 5 1
9 6 4 2 1 -1 -1 -2 -1 -0 1 2 2 2 2 0 1 4 8 9 6 4 5 9 15 17 16 13 14 16 19 21 16 8 1 -4 -1 3 8 13 15 16 15 13 13 11 11 14 16 6 -10 -28 -29 -27 -22 -14 -6 -1 -1 -3 -4 -5 -3 -1 6 10 10 5 3
7 4 1 -2 -4 -4 -3 -1 1 1 1 0 -1 -1 -2 -3 -3 -0 3 5 4 3 3 5 10 13 14 14 15 17 20 21 15 8 2 -3 -2 -2 -1 2 7 11 14 16 18 17 17 18 21 12 -6 -26 -28 -25 -20 -14 -8 -6 -6 -8 -8 -6 -3 1 6 8 8 4 4
-7 -8 -9 -10 -9 -6 -2 1 1 -1 -4 -4 -4 -4 -4 -4 -2 -0 2 4 3 2 2 4 6 7 8 8 8 10 11 11 6 1 -5 -9 -10 -10 -9 -6 -1 4 9 13 13 13 14 19 28 21 5 -15 -21 -21 -18 -12 -7 -6 -7 -9 -9 -6 -3 1 5 7 8 6 6
-7 -7 -6 -5 -4 -2 -0 1 -2 -5 -7 -7 -4 -2 -1 -0 0 1 2 3 3 2 1 1 2 2 2 3 3 2 2 2 -0 -4 -9 -14 -16 -16 -15 -11 -8 -4 0 4 8 11 15 19 21 17 9 -5 -15 -17 -15 -8 -4 -4 -5 -7 -6 -5 -3 -1 2 5 8 8 7
3 4 7 10 8 6 4 3 -1 -5 -7 -5 -1 1 2 1 0 -0 1 3 3 1 -2 -2 -3 -3 -3 -2 -4 -5 -4 -3 -0 -3 -8 -17 -20 -20 -17 -13 -10 -8 -7 -5 1 6 9 10 8 5 -1 -9 -16 -16 -11 -4 -2 -2 -3 -3 -2 -1 -1 -0 2 4 5 6 5
4 4 6 7 7 6 3 2 1 -1 -4 -3 2 5 6 5 3 1 2 4 1 -2 -4 -6 -10 -11 -12 -12 -13 -13 -11 -7 -3 -4 -8 -14 -18 -19 -18 -14 -13 -12 -12 -11 -9 -6 -4 -3 -6 -10 -14 -18 -17 -12 -6 -1 0 0 -0 -1 1 2 3 3 4 5 4 4 4
-1 -0 1 1 2 1 -0 -0 2 2 -1 -4 -1 4 8 9 6 3 2 1 -2 -5 -8 -11 -14 -16 -17 -17 -16 -14 -11 -9 -7 -6 -8 -11 -12 -10 -8 -8 -8 -9 -11 -13 -13 -12 -10 -8 -7 -7 -8 -9 -8 -5 -2 1 2 3 2 2 3 4 4 4 6 6 6 4 3
-6 -5 -3 -2 -1 -1 -2 -1 2 3 0 -6 -5 1 7 8 3 -1 -2 -2 -3 -4 -7 -12 -16 -17 -15 -11 -8 -5 -3 -1 -1 -1 -3 -6 -5 -4 -4 -4 -4 -4 -4 -5 -6 -5 -4 -3 -2 -1 -1 -3 -4 -3 -1 2 3 2 2 3 4 5 5 5 6 7 7 5 3
-7 -5 -2 1 1 -1 -2 -2 1 2 0 -6 -5 1 6 5 -3 -6 -5 -4 -2 1 1 -1 -5 -7 -7 -5 -4 -2 -1 1 1 2 1 -1 -2 -3 -3 -4 -3 -2 -1 -1 -1 -1 -1 -1 -1 -1 -2 -2 -2 -1 1 1 1 1 2 3 4 5 6 6 7 7 7 5 2
-10 -8 -4 1 1 0 -1 -1 1 1 -1 -7 -4 1 5 2 -4 -5 -4 -2 1 3 4 4 3 1 -2 -4 -5 -4 -3 -1 0 1 1 0 -1 -2 -3 -3 -3 -2 -2 -1 -1 -2 -2 -2 -2 -2 -1 1 2 3 3 1 -1 -0 1 3 5 5 5 4 5 6 6 6 3
-9 -9 -7 -3 -3 -2 -2 -1 2 1 -1 -5 -0 4 5 2 -1 -1 -0 1 3 3 4 4 5 4 1 -3 -5 -5 -4 -4 -2 -1 -0 0 -0 -1 -2 -3 -2 -2 -2 -2 -3 -3 -4 -3 -3 -2 1 3 4 4 2 -0 -1 0 2 4 5 5 4 3 4 6 7 7 4
-4 -6 -6 -5 -6 -6 -5 -3 -1 0 1 1 4 5 5 3 2 1 2 3 3 4 3 3 4 4 3 0 -2 -4 -4 -4 -3 -2 -0 1 1 1 -1 -2 -1 -1 -1 -2 -3 -3 -3 -3 -2 0 2 4 3 1 0 -1 0 2 4 6 6 5 3 1 3 5 7 6 3
-1 -2 -3 -4 -6 -6 -6 -5 -3 -2 0 2 2 1 1 1 1 2 2 3 3 3 3 3 3 2 2 2 0 -1 -2 -2 -2 -1 1 2 3 2 1 1 1 0 -1 -2 -2 -2 -1 -1 -0 2 3 3 1 1 1 1 2 3 5 7 6 3 0 -2 -0 2 4 5 3
2 1 -1 -2 -3 -4 -5 -5 -3 -1 1 2 -1 -3 -3 -1 0 1 1 1 2 3 3 2 1 1 1 2 2 1 1 0 1 1 2 2 2 2 1 2 2 1 1 0 -0 -0 -0 -1 0 1 2 2 2 2 2 3 2 2 3 5 3 -1 -3 -4 -2 -0 2 4 4
4 3 2 0 -1 -2 -3 -3 -2 0 2 2 -0 -2 -2 -0 1 1 1 0 2 3 3 1 -0 -0 0 1 1 2 2 3 3 3 2 1 1 0 1 2 2 2 1 1 1 0 -0 -0 0 1 2 3 2 2 1 1 1 0 1 2 -1 -3 -5 -5 -3 -1 2 4 4
4 3 2 1 1 -0 -0 -0 0 1 2 2 2 1 1 1 2 2 2 2 3 2 1 -1 -1 -0 0 0 1 2 3 4 4 3 2 2 1 1 1 2 2 1 1 1 1 1 1 1 2 3 3 4 3 2 0 0 0 0 0 0 -2 -4 -5 -6 -4 -2 -0 1 1
1 2 1 1 1 1 1 2 3 4 5 5 5 4 2 1 0 1 1 2 2 1 0 -1 -0 0 1 1 2 2 3 3 3 3 2 2 2 2 2 1 1 0 0 -0 0 0 1 1 3 4 5 5 3 2 1 0 0 1 1 1 -0 -2 -3 -5 -4 -3 -2 -1 -1
-1 -0 -0 0 1 1 2 2 3 4 5 6 6 5 4 2 1 0 0 0 0 1 2 3 3 2 2 1 1 1 1 1 2 2 2 2 2 1 1 0 0 -0 -1 -1 -1 -1 -1 -0 2 3 4 4 3 2 1 1 1 1 2 2 1 -0 -2 -3 -3 -3 -2 -2 -1
-1 -1 -1 -1 -1 -0 1 2 3 3 3 4 4 4 4 4 3 2 2 1 1 3 5 7 6 5 3 1 1 0 1 0 1 1 2 2 2 1 0 -0 0 0 0 -1 -1 -2 -2 -1 1 2 3 3 3 2 2 2 2 2 2 2 1 0 -0 -1 -1 -1 -1 -0 0
-2 -2 -3 -3 -2 -2 -1 0 1 1 2 3 3 4 4 3 3 3 3 2 2 3 5 7 6 5 3 1 1 1 1 1 1 2 2 3 2 1 1 0 1 1 0 -1 -2 -3 -3 -3 -0 1 2 2 3 3 3 3 3 3 3 2 1 1 1 1 1 1 1 1 1
-0 -1 -1 -1 -1 -0 -0 -0 -0 0 1 2 2 2 3 3 3 3 3 3 2 3 4 6 6 5 3 2 2 2 1 1 2 3 3 3 3 2 1 0 0 0 0 -1 -2 -3 -4 -4 -2 -1 -0 -0 1 2 2 2 3 3 3 2 2 3 3 3 2 2 2 2 2
-1 -0 -0 0 1 0 -0 -0 -1 -1 -0 0 1 1 2 2 3 3 3 4 3 3 4 4 5 5 5 6 4 3 2 2 3 3 3 3 3 2 1 0 0 0 1 1 -0 -2 -4 -5 -3 -2 -2 -2 -1 0 1 1 2 2 2 3 3 3 3 3 3 3 3 3 3
-2 -2 -2 -1 -1 -1 -1 -1 -1 -1 -1 -1 -0 1 2 2 2 2 2 3 3 4 4 3 2 4 6 7 5 4 3 3 3 4 4 3 2 1 1 0 0 1 1 3 2 0 -3 -5 -4 -3 -2 -0 2 3 3 3 2 2 2 3 3 3 3 3 3 3 3 2 1
-3 -3 -3 -3 -2 -2 -2 -2 -2 -2 -1 -1 -0 0 1 1 1 1 2 2 2 3 3 3 4 5 5 4 4 4 4 4 4 4 4 3 1 1 1 1 1 1 1 3 4 3 -0 -4 -4 -3 -1 1 3 4 4 3 3 3 4 4 3 3 3 3 3 2 0 -1 -4
-2 -2 -2 -2 -2 -2 -2 -1 -1 -1 -1 -0 -0 -0 0 1 1 1 2 2 2 1 2 3 4 5 4 2 3 3 4 4 4 4 4 3 2 1 1 2 2 1 1 4 7 6 3 -1 -2 -2 -1 1 3 4 3 2 2 3 4 4 3 2 2 2 2 0 -1 -3 -5
-1 -1 -1 -1 -1 -1 -1 -1 -1 -1 -0 0 0 0 0 1 1 2 2 2 2 2 2 3 4 4 3 2 2 2 2 3 3 3 3 3 3 2 2 3 2 2 3 7 9 9 7 4 2 1 1 2 3 2 1 1 2 2 2 1 1 1 1 0 -1 -1 -2 -2 -3
-0 -0 -1 -1 -1 -0 -0 -0 -1 -1 -0 0 0 0 0 0 1 2 2 2 2 2 2 3 3 3 3 3 3 3 2 1 2 2 3 3 3 3 2 2 2 2 3 6 9 9 8 7 6 5 5 4 2 2 1 1 1 -0 -1 -1 -1 -1 -2 -3 -3 -2 -1 -0 -0
-0 -0 -0 -0 -0 -0 0 0 -0 -1 -1 -0 0 0 0 0 0 1 2 2 2 3 3 3 3 3 3 3 3 3 3 2 3 3 3 3 3 2 2 1 0 -0 1 4 6 6 6 6 5 5 4 3 2 2 1 -0 -1 -1 -1 -1 -1 -1 -1 -0 0 1 1 1 1
-1 -1 -1 -1 -0 -0 0 0 -0 -1 -1 -1 -1 -0 0 0 0 0 1 1 2 3 3 3 3 2 2 2 2 2 2 2 2 2 2 2 2 2 2 1 -1 -2 -1 2 3 4 3 3 3 2 1 0 1 1 0 -1 -1 -0 -0 -0 -0 0 1 2 2 2 2 1 1
-1 -2 -2 -2 -1 -1 -0 0 0 -0 -0 -1 -1 -0 0 0 0 -0 -0 0 2 2 3 2 2 2 2 2 2 1 1 1 2 2 2 2 2 2 2 1 -2 -2 -1 3 4 4 3 3 2 1 -0 -1 0 1 1 0 0 0 1 0 0 1 1 2 2 2 2 2 2
-1 -2 -2 -3 -3 -2 -1 -1 -0 0 0 -0 -0 -0 0 1 0 -0 -1 -0 1 2 2 2 2 2 2 2 2 1 1 1 1 2 2 2 2 2 1 -1 -2 -1 1 4 5 4 3 2 1 -0 -0 0 1 2 2 1 1 1 1 0 1 1 2 2 2 2 3 3 3
-0 -1 -2 -3 -4 -3 -3 -2 -1 -1 -0 0 -0 0 0 1 0 -0 -1 -0 1 1 1 1 2 2 2 3 2 2 2 2 1 1 1 1 2 2 1 -1 -1 1 3 4 4 3 2 1 -0 -0 1 1 2 2 2 1 1 1 0 0 1 1 2 2 2 3 4 4 4
-0 -1 -2 -3 -3 -4 -4 -3 -2 -2 -1 -1 -0 0 0 1 1 0 -0 -0 1 1 0 -0 1 2 2 2 2 2 2 2 1 1 1 1 2 2 1 0 1 1 2 2 2 1 1 1 1 1 1 2 2 1 1 1 1 1 1 1 1 1 2 2 3 4 4 4 4
-1 -1 -1 -2 -3 -3 -4 -3 -3 -2 -2 -2 -1 -0 0 1 1 1 1 0 0 1 0 -0 0 1 1 2 2 2 2 1 1 2 2 2 2 2 2 2 2 1 1 1 1 1 2 2 1 1 1 1 1 1 1 1 1 1 1 1 1 1 2 3 3 4 4 4 3
-1 -1 -1 -1 -2 -2 -3 -3 -3 -3 -2 -2 -2 -1 -1 -0 0 1 1 1 1 1 1 0 0 0 1 1 2 2 2 1 1 1 2 2 2 1 1 2 2 1 1 1 2 2 2 2 1 1 1 0 0 1 1 1 1 1 1 1 1 1 2 3 3 3 3 3 2
Height
1468 1469 1469 1470 1471 1472 1474 1476 1477 1478 1479 1480 1481 1482 1482 1483 1484 1484 1484 1484 1484 1484 1483 1484 1484 1485 1485 1486 1485 1485 1485 1486 1487 1489 1490 1491 1492 1492 1493 1494 1495 1496 1496 1497 1498 1499 1500 1500 1501 1501 1501 1501 1502 1504 1505 1507 1508 1509 1509 1508 1508 1508 1507 1506 1505 1505 1505 1505 1505
1466 1467 1467 1468 1469 1471 1473 1475 1476 1477 1478 1479 1480 1480 1481 1482 1482 1482 1482 1482 1482 1481 1481 1482 1482 1482 1482 1482 1482 1482 1482 1483 1485 1486 1487 1488 1489 1490 1491 1492 1492 1493 1494 1495 1495 1496 1497 1497 1497 1497 1498 1498 1500 1501 1503 1504 1506 1507 1507 1507 1507 1507 1506 1505 1504 1503 1503 1503 1504
1464 1464 1465 1467 1468 1471 1472 1474 1475 1476 1477 1478 1478 1478 1479 1479 1480 1480 1480 1480 1480 1480 1480 1480 1480 1480 1480 1480 1479 1479 1479 1481 1482 1483 1484 1485 1486 1487 1488 1489 1490 1491 1492 1492 1493 1494 1495 1495 1495 1494 1495 1496 1498 1500 1502 1503 1504 1505 1505 1505 1505 1505 1505 1504 1502 1502 1502 1502 1502
1463 1464 1465 1466 1468 1469 1471 1472 1473 1475 1475 1476 1476 1477 1477 1477 1478 1478 1478 1478 1478 1478 1478 1478 1478 1477 1477 1477 1477 1476 1477 1477 1479 1481 1482 1482 1483 1485 1486 1486 1487 1488 1488 1489 1490 1491 1492 1492 1492 1492 1492 1493 1496 1499 1501 1502 1503 1503 1503 1503 1504 1504 1503 1503 1502 1501 1500 1500 1502
1464 1465 1465 1466 1467 1469 1470 1471 1472 1473 1473 1474 1474 1474 1475 1475 1476 1476 1477 1476 1476 1477 1477 1477 1476 1475 1475 1475 1475 1474 1474 1475 1476 1477 1478 1480 1482 1483 1484 1484 1484 1484 1485 1486 1487 1487 1488 1488 1489 1488 1488 1490 1494 1497 1500 1502 1502 1502 1502 1502 1502 1502 1502 1502 1501 1500 1500 1500 1501
1463 1464 1464 1465 1466 1467 1469 1470 1471 1471 1472 1472 1472 1472 1473 1473 1474 1475 1475 1474 1474 1474 1475 1475 1475 1474 1473 1473 1473 1473 1473 1473 1473 1474 1475 1477 1480 1481 1482 1482 1482 1482 1482 1482 1483 1484 1484 1485 1484 1483 1484 1487 1492 1496 1499 1500 1501 1501 1501 1500 1500 1500 1500 1500 1500 1499 1499 1499 1500
1462 1462 1463 1464 1465 1467 1468 1469 1469 1470 1470 1471 1471 1471 1472 1472 1472 1473 1473 1472 1472 1472 1473 1474 1474 1473 1472 1472 1472 1472 1471 1471 1470 1471 1472 1475 1477 1479 1480 1480 1481 1480 1479 1478 1479 1480 1480 1480 1479 1478 1479 1485 1491 1494 1497 1498 1499 1499 1499 1498 1498 1498 1499 1499 1499 1498 1498 1499 1499
1461 1461 1462 1463 1464 1466 1467 1468 1468 1469 1469 1469 1469 1470 1470 1471 1471 1471 1471 1471 1471 1471 1472 1472 1472 1472 1471 1471 1470 1470 1469 1469 1468 1468 1470 1473 1475 1477 1478 1479 1480 1480 1479 1478 1478 1477 1477 1477 1475 1473 1474 1481 1487 1491 1493 1495 1496 1497 1497 1497 1497 1497 1497 1497 1497 1497 1497 1498 1498
1461 1462 1462 1463 1464 1465 1466 1467 1467 1467 1467 1468 1468 1468 1469 1469 1469 1469 1469 1469 1469 1469 1470 1470 1470 1470 1470 1470 1469 1468 1468 1467 1467 1467 1469 1472 1474 1476 1477 1479 1479 1479 1478 1477 1477 1477 1476 1475 1473 1471 1472 1477 1483 1487 1490 1492 1493 1493 1494 1495 1495 1495 1496 1496 1496 1496 1496 1496 1497
1462 1462 1462 1463 1463 1464 1464 1465 1465 1466 1466 1467 1467 1467 1467 1467 1467 1467 1467 1467 1468 1468 1468 1469 1469 1469 1469 1469 1468 1468 1467 1467 1467 1468 1469 1471 1473 1475 1476 1477 1477 1477 1477 1477 1477 1477 1476 1474 1472 1470 1471 1474 1479 1484 1487 1488 1489 1490 1491 1492 1493 1493 1494 1494 1494 1494 1494 1494 1494
1461 1462 1462 1462 1462 1463 1464 1464 1464 1464 1465 1466 1466 1466 1465 1465 1465 1465 1466 1466 1467 1467 1467 1468 1468 1468 1468 1468 1468 1467 1467 1467 1467 1468 1469 1471 1472 1474 1475 1475 1476 1476 1476 1476 1476 1476 1475 1474 1473 1472 1472 1474 1478 1481 1484 1485 1487 1487 1488 1489 1490 1491 1492 1492 1492 1492 1492 1492 1492
1460 1461 1461 1462 1462 1463 1463 1463 1462 1463 1463 1464 1465 1465 1464 1464 1464 1464 1464 1465 1465 1466 1466 1466 1466 1466 1467 1467 1467 1467 1467 1466 1466 1467 1468 1469 1471 1472 1473 1474 1474 1474 1474 1475 1475 1475 1475 1474 1474 1474 1474 1475 1477 1479 1481 1483 1484 1485 1486 1487 1488 1489 1490 1490 1490 1490 1490 1490 1490
1461 1461 1461 1462 1462 1462 1462 1462 1462 1461 1462 1462 1463 1463 1463 1463 1463 1463 1462 1463 1464 1464 1465 1464 1465 1465 1465 1466 1466 1465 1465 1464 1465 1465 1467 1468 1469 1470 1471 1472 1472 1472 1473 1473 1474 1474 1474 1474 1474 1474 1475 1475 1476 1477 1479 1481 1482 1483 1484 1485 1486 1487 1488 1488 1488 1488 1488 1488 1489
1461 1461 1462 1462 1462 1462 1462 1462 1461 1461 1461 1461 1461 1462 1462 1462 1462 1461 1461 1462 1462 1463 1463 1463 1463 1464 1464 1464 1464 1464 1463 1463 1463 1464 1465 1466 1467 1467 1468 1469 1470 1471 1471 1472 1472 1472 1472 1473 1473 1473 1474 1474 1475 1476 1477 1479 1480 1481 1482 1483 1484 1485 1485 1486 1487 1487 1487 1487 1487
1460 1460 1461 1461 1462 1462 1462 1461 1461 1460 1460 1460 1460 1460 1460 1460 1460 1460 1460 1460 1461 1462 1461 1461 1461 1462 1462 1463 1463 1462 1462 1462 1462 1463 1463 1464 1465 1465 1466 1467 1467 1468 1469 1469 1470 1471 1471 1472 1472 1473 1473 1473 1474 1475 1476 1477 1478 1479 1480 1481 1482 1482 1483 1484 1485 1485 1485 1485 1485
1459 1459 1459 1460 1460 1461 1461 1460 1460 1459 1459 1459 1459 1459 1458 1458 1458 1459 1459 1459 1460 1460 1460 1459 1459 1460 1461 1462 1462 1462 1462 1462 1462 1462 1462 1462 1462 1463 1464 1465 1465 1466 1467 1468 1468 1469 1470 1471 1472 1472 1472 1472 1473 1474 1474 1475 1477 1477 1478 1479 1480 1481 1481 1482 1483 1483 1483 1483 1484
1457 1457 1458 1458 1458 1459 1459 1459 1459 1458 1457 1458 1458 1457 1457 1457 1458 1458 1458 1458 1458 1458 1458 1458 1458 1459 1459 1460 1461 1461 1461 1461 1461 1461 1460 1460 1461 1461 1462 1462 1463 1464 1465 1466 1467 1468 1469 1470 1470 1471 1471 1472 1472 1472 1473 1474 1475 1476 1477 1478 1479 1479 1480 1481 1481 1482 1482 1482 1483
1455 1456 1456 1456 1456 1457 1457 1457 1457 1457 1457 1457 1457 1457 1457 1456 1457 1457 1457 1457 1457 1457 1457 1457 1457 1457 1458 1458 1459 1459 1460 1460 1459 1459 1459 1459 1459 1459 1459 1460 1461 1462 1463 1465 1466 1467 1467 1468 1469 1469 1470 1470 1470 1471 1472 1472 1473 1474 1476 1477 1477 1478 1479 1479 1480 1481 1481 1482 1482
1454 1454 1454 1454 1454 1454 1455 1455 1456 1456 1456 1456 1456 1455 1455 1455 1455 1455 1455 1455 1455 1455 1455 1455 1456 1456 1457 1457 1457 1458 1458 1458 1457 1457 1457 1457 1457 1457 1457 1458 1459 1461 1462 1463 1464 1465 1466 1467 1467 1468 1468 1469 1469 1470 1471 1471 1472 1473 1474 1476 1476 1477 1477 1478 1479 1480 1480 1481 1481
1453 1452 1452 1452 1452 1453 1453 1454 1454 1455 1455 1455 1454 1454 1454 1454 1454 1454 1454 1454 1454 1454 1454 1454 1454 1455 1455 1456 1456 1456 1456 1456 1456 1456 1456 1456 1456 1456 1456 1457 1458 1460 1461 1462 1462 1463 1464 1465 1466 1467 1467 1467 1468 1469 1469 1470 1471 1472 1473 1474 1475 1476 1476 1477 1477 1478 1479 1479 1480
1452 1451 1451 1451 1451 1452 1452 1452 1453 1453 1453 1453 1453 1453 1452 1452 1452 1452 1453 1453 1453 1453 1453 1453 1453 1453 1453 1454 1454 1454 1454 1455 1455 1455 1454 1454 1455 1455 1456 1457 1458 1459 1459 1460 1461 1462 1462 1463 1464 1465 1466 1467 1467 1467 1468 1469 1470 1471 1472 1472 1473 1474 1475 1475 1476 1477 1477 1478 1478
1451 1451 1450 1450 1450 1451 1451 1451 1451 1451 1451 1452 1452 1452 1452 1452 1452 1452 1452 1452 1452 1452 1452 1452 1452 1452 1452 1452 1452 1452 1453 1453 1453 1453 1453 1453 1454 1454 1455 1456 1457 1457 1458 1459 1459 1460 1461 1462 1463 1464 1464 1465 1466 1466 1467 1468 1469 1469 1470 1471 1472 1472 1473 1474 1474 1475 1476 1476 1477
1451 1450 1450 1450 1450 1450 1450 1450 1450 1450 1450 1450 1450 1450 1450 1450 1450 1450 1450 1450 1450 1450 1450 1450 1450 1450 1450 1451 1451 1451 1451 1452 1452 1452 1452 1452 1453 1453 1454 1455 1456 1456 1457 1457 1458 1459 1460 1461 1461 1462 1463 1463 1464 1465 1466 1467 1467 1468 1469 1469 1470 1471 1471 1472 1473 1473 1474 1475 1475
1450 1450 1450 1450 1449 1449 1449 1449 1449 1448 1448 1448 1448 1448 1448 1447 1447 1448 1448 1448 1448 1449 1449 1449 1449 1449 1449 1449 1449 1449 1450 1450 1450 1451 1451 1451 1452 1452 1453 1453 1454 1455 1455 1456 1457 1457 1458 1459 1460 1461 1462 1462 1463 1463 1464 1465 1466 1466 1467 1468 1468 1469 1470 1470 1471 1472 1472 1473 1473
1449 1449 1449 1449 1449 1448 1448 1448 1447 1447 1447 1447 1446 1446 1446 1446 1446 1446 1446 1446 1447 1447 1447 1447 1448 1448 1448 1448 1448 1447 1448 1448 1448 1449 1449 1450 1450 1451 1452 1452 1452 1453 1453 1454 1455 1456 1457 1458 1458 1459 1460 1461 1462 1462 1463 1463 1464 1465 1465 1466 1467 1467 1468 1469 1469 1470 1470 1471 1472
1448 1448 1448 1448 1447 1447 1447 1447 1446 1446 1445 1445 1445 1444 1444 1444 1444 1444 1444 1444 1444 1445 1445 1446 1446 1446 1446 1446 1446 1446 1446 1446 1446 1447 1447 1448 1449 1449 1450 1450 1451 1451 1452 1452 1453 1454 1456 1456 1457 1458 1459 1460 1460 1461 1462 1462 1462 1463 1463 1464 1465 1466 1466 1467 1467 1467 1468 1469 1469
1447 1447 1447 1446 1446 1446 1445 1445 1445 1444 1444 1443 1443 1443 1443 1442 1442 1442 1442 1442 1442 1443 1443 1443 1444 1444 1444 1444 1444 1444 1444 1444 1444 1445 1445 1446 1447 1447 1448 1448 1449 1449 1450 1450 1452 1453 1454 1455 1456 1457 1457 1458 1459 1460 1460 1461 1461 1461 1462 1462 1463 1463 1464 1464 1465 1466 1466 1467 1468
1445 1445 1445 1445 1444 1444 1444 1443 1443 1443 1442 1442 1442 1442 1441 1441 1441 1441 1441 1441 1441 1441 1441 1441 1442 1442 1442 1442 1442 1442 1442 1442 1442 1443 1443 1444 1445 1446 1446 1447 1447 1447 1448 1448 1450 1451 1452 1453 1454 1455 1456 1457 1457 1458 1458 1459 1459 1459 1460 1460 1461 1461 1462 1462 1463 1464 1465 1465 1466
1444 1444 1444 1443 1443 1443 1442 1442 1442 1441 1441 1441 1441 1440 1440 1440 1439 1439 1439 1439 1439 1439 1439 1439 1439 1440 1440 1440 1440 1440 1440 1440 1441 1441 1442 1442 1443 1443 1444 1445 1445 1446 1446 1447 1448 1449 1450 1451 1452 1453 1454 1454 1455 1456 1456 1457 1457 1457 1457 1458 1458 1459 1459 1460 1461 1462 1462 1463 1464
1443 1443 1442 1442 1442 1442 1442 1441 1441 1440 1440 1439 1439 1439 1438 1438 1438 1438 1437 1437 1437 1437 1437 1437 1437 1437 1438 1438 1438 1438 1438 1439 1439 1439 1440 1441 1441 1442 1442 1442 1443 1443 1444 1445 1446 1447 1447 1448 1450 1451 1452 1452 1453 1453 1454 1454 1454 1455 1455 1456 1456 1457 1457 1458 1459 1460 1461 1461 1462
1442 1441 1441 1441 1441 1441 1440 1440 1439 1439 1438 1438 1438 1437 1437 1437 1437 1436 1436 1436 1435 1435 1435 1435 1435 1435 1436 1436 1436 1437 1437 1437 1437 1438 1438 1438 1439 1439 1440 1440 1440 1441 1442 1443 1444 1444 1445 1446 1447 1448 1449 1450 1451 1451 1452 1452 1452 1453 1453 1454 1454 1455 1456 1456 1457 1458 1459 1459 1460
1440 1440 1440 1439 1439 1439 1439 1438 1438 1437 1437 1437 1437 1436 1436 1436 1435 1435 1435 1434 1434 1433 1433 1433 1433 1433 1433 1434 1434 1435 1435 1435 1436 1436 1436 1437 1437 1437 1437 1438 1438 1438 1439 1440 1441 1442 1443 1444 1445 1446 1447 1448 1449 1449 1449 1450 1450 1451 1451 1452 1452 1453 1454 1455 1456 1456 1457 1458 1459
1439 1438 1438 1438 1437 1437 1437 1437 1437 1436 1436 1436 1435 1435 1435 1434 1434 1434 1433 1433 1432 1432 1432 1432 1432 1432 1432 1432 1432 1433 1433 1433 1434 1434 1434 1435 1435 1435 1435 1436 1436 1436 1437 1438 1439 1440 1441 1442 1443 1444 1445 1446 1446 1447 1447 1447 1448 1449 1450 1450 1451 1452 1452 1453 1454 1455 1456 1457 1457
1438 1437 1437 1437 1436 1436 1436 1435 1435 1434 1434 1434 1434 1433 1433 1433 1432 1432 1432 1432 1431 1431 1431 1430 1430 1430 1430 1430 1431 1431 1431 1432 1432 1432 1432 1432 1433 1433 1433 1433 1434 1435 1436 1437 1438 1439 1440 1441 1442 1442 1443 1444 1445 1445 1445 1446 1446 1447 1448 1448 1449 1450 1451 1451 1452 1453 1454 1455 1456
1437 1436 1436 1435 1435 1434 1434 1433 1433 1433 1432 1432 1432 1432 1432 1432 1431 1431 1430 1430 1430 1430 1429 1429 1429 1429 1428 1429 1429 1429 1429 1430 1430 1430 1430 1430 1431 1431 1431 1432 1432 1433 1435 1436 1436 1437 1438 1439 1440 1441 1442 1442 1443 1443 1444 1444 1444 1445 1446 1446 1447 1448 1449 1450 1451 1451 1452 1453 1454
1436 1435 1435 1434 1433 1433 1432 1432 1432 1431 1431 1431 1431 1431 1431 1430 1430 1429 1429 1429 1428 1428 1428 1428 1428 1427 1427 1427 1427 1427 1427 1428 1428 1428 1428 1428 1429 1429 1430 1430 1431 1432 1433 1434 1435 1435 1436 1437 1438 1439 1440 1440 1441 1442 1442 1442 1442 1443 1444 1445 1445 1446 1447 1448 1449 1450 1451 1452 1452
1435 1434 1433 1433 1432 1432 1431 1431 1430 1430 1429 1429 1429 1429 1429 1429 1428 1428 1427 1427 1427 1427 1427 1426 1426 1426 1426 1426 1426 1426 1426 1427 1427 1427 1427 1427 1427 1428 1428 1429 1430 1431 1432 1432 1433 1433 1434 1435 1436 1437 1437 1438 1439 1439 1440 1440 1441 1442 1442 1443 1444 1445 1446 1447 1447 1448 1449 1450 1451
1433 1433 1432 1432 1431 1431 1430 1429 1429 1428 1428 1427 1427 1427 1427 1427 1427 1427 1426 1426 1426 1425 1425 1425 1425 1425 1425 1425 1425 1425 1425 1425 1425 1425 1426 1426 1426 1426 1427 1428 1429 1429 1430 1430 1431 1432 1432 1433 1434 1435 1435 1436 1437 1437 1438 1439 1439 1440 1441 1442 1442 1443 1444 1445 1446 1447 1447 1448 1449
1432 1432 1431 1431 1430 1429 1429 1428 1427 1427 1426 1426 1426 1426 1426 1426 1425 1425 1425 1425 1424 1424 1424 1423 1423 1423 1423 1423 1423 1423 1423 1423 1424 1424 1424 1425 1425 1425 1426 1426 1427 1427 1428 1428 1429 1430 1431 1431 1432 1432 1433 1434 1435 1436 1437 1437 1438 1439 1439 1440 1441 1442 1442 1443 1444 1445 1446 1447 1447
1430 1430 1429 1429 1428 1428 1427 1427 1426 1426 1425 1424 1424 1424 1424 1424 1424 1423 1423 1423 1423 1422 1422 1422 1422 1422 1422 1422 1422 1422 1422 1422 1422 1422 1423 1423 1423 1423 1424 1424 1425 1425 1426 1427 1427 1428 1429 1429 1430 1431 1432 1432 1433 1434 1435 1436 1436 1437 1438 1439 1440 1440 1441 1442 1443 1444 1444 1445 1446
1429 1428 1428 1427 1427 1426 1426 1425 1425 1424 1424 1423 1422 1422 1422 1422 1422 1422 1422 1422 1421 1421 1421 1421 1421 1420 1420 1420 1420 1420 1420 1420 1421 1421 1421 1422 1422 1422 1422 1422 1423 1423 1424 1425 1426 1426 1427 1428 1428 1429 1430 1431 1432 1432 1433 1434 1435 1436 1437 1437 1438 1439 1440 1440 1441 1442 1442 1443 1444